z  -0.0013787      Peri.   76.23124     +0.11571515     -0.91085769

 +/-0.0000033      Node    24.18546     -0.07698752     -0.40587102

e   1.0048829      Incl.   75.23706     +0.99029436     +0.07487979

From 357 observations 2000 Sept. 5-2001 Sept. 28, mean residual 0".67.



NAKANO

         **** Don't distribute anyone except personal use only ****

                (C) Copyright 2001 OAA/ComputingSection

write mail from CFAD0::NAKANO on 2001-10-02 04:10:33(JST).

 

    C/2000 SV74 (LINEAR) 

Epoch 2002 May 6.0 TT = JDT 2452400.5  

T 2002 Apr. 30.48682 TT                                 Nakano

q   3.5414489            (2000.0)            P               Q

z  -0.0013949      Peri.   76.23244     +0.11569590     -0.91086040

 +/-0.0000035      Node    24.18543     -0.07699537     -0.40586873

e   1.0049401      Incl.   75.23701     +0.99029600     +0.07485924

From 251 observations 2000 Sept. 5-2001 Aug. 27, mean residual 0".65.



NAKANO

         **** Don't distribute anyone except personal use only ****

                (C) Copyright 2001 OAA/ComputingSection

write mail from CFAD0::NAKANO on 2001-08-29 00:52:52(JST).



    C/2000 SV74 (LINEAR) 

Epoch 2002 May  6.0 TT = JDT 2452400.5  

T 2002 Apr. 30.48460 TT                                 Nakano

q   3.5413089            (2000.0)            P               Q

z  -0.0014036      Peri.   76.23470     +0.11566186     -0.91086460

 +/-0.0000041      Node    24.18541     -0.07701562     -0.40586651

e   1.0049707      Incl.   75.23728     +0.99029840     +0.07482010

From 187 observations 2000 Sept. 5-2001 July 30, mean residual 0".62.



NAKANO

         **** Don't distribute anyone except personal use only ****

                (C) Copyright 2001 OAA/ComputingSection

write mail from CFAD0::NAKANO on 2001-07-31 23:54:42(JST).

 



    C/2000 SV74 (LINEAR) 

Epoch 2002 May 6.0 TT = JDT 2452400.5  

T 2002 Apr. 30.48021 TT                                 Nakano

q   3.5411842            (2000.0)            P               Q

z  -0.0014091      Peri.   76.23653     +0.11562937     -0.91086892

 +/-0.0000055      Node    24.18544     -0.07702117     -0.40586265

e   1.0049899      Incl.   75.23680     +0.99030177     +0.07478850

From 172 observations 2000 Sept. 5-2001 June 27, mean residual 0".59.



NAKANO

         **** Don't distribute anyone except personal use only ****

                (C) Copyright 2001 OAA/ComputingSection

write mail from CFAD0::NAKANO on 2001-07-03 00:46:31(JST).



◎C/2000 SV74の軌道と予報位置です

 1月19日以来の観測が,我が国では,6月28日に上尾の門田健一氏によって

報告されています.氏の CCD全光度は,15.0等でした.



    C/2000 SV74 (LINEAR) 

Epoch 2002 May 6.0 TT = JDT 2452400.5  

T 2002 Apr. 30.48021 TT                                 Nakano

q   3.5411842            (2000.0)            P               Q

z  -0.0014091      Peri.   76.23653     +0.11562937     -0.91086892

 +/-0.0000055      Node    24.18544     -0.07702117     -0.40586265

e   1.0049899      Incl.   75.23680     +0.99030177     +0.07478850

From 172 observations 2000 Sept. 5-2001 June 27, mean residual 0".59.

 

Date/        TT  R.A.(2000) Decl.     Delta   r     Daily motion  Mag.  Moon Age

              h    h  m       。  ,                      ,  / PA 。  m1      。

2001 July  1 18  02 10.27  +33 57.2   4.884  4.462    13.8 /  22  14.4  154  .85

           2 18  02 10.70  +34 10.0   4.866  4.456    13.8 /  22  14.4  146  .92

           3 18  02 11.11  +34 22.8   4.847  4.451    13.9 /  21  14.4  137  .97

           4 18  02 11.52  +34 35.7   4.829  4.446    13.9 /  21  14.4  127  .99

           5 18  02 11.92  +34 48.7   4.810  4.441    13.9 /  20  14.4  116 1.00

           6 18  02 12.31  +35 01.7   4.791  4.435    13.9 /  20  14.4  105  .99

           7 18  02 12.69  +35 14.8   4.773  4.430    13.9 /  19  14.4   95  .96

           8 18  02 13.06  +35 28.0   4.754  4.425    13.9 /  18  14.3   84  .91

           9 18  02 13.42  +35 41.2   4.735  4.420    14.0 /  18  14.3   74  .85

          10 18  02 13.77  +35 54.5   4.716  4.415    14.0 /  17  14.3   63  .78

          11 18  02 14.11  +36 07.9   4.697  4.410    14.0 /  16  14.3   53  .69

          12 18  02 14.44  +36 21.3   4.678  4.404    14.0 /  16  14.3   44  .60

          13 18  02 14.75  +36 34.9   4.659  4.399    14.1 /  15  14.3   35  .50

          14 18  02 15.06  +36 48.4   4.640  4.394    14.1 /  14  14.3   29  .40

          15 18  02 15.35  +37 02.1   4.621  4.389    14.1 /  14  14.2   26  .30

          16 18  02 15.64  +37 15.8   4.602  4.384    14.1 /  13  14.2   29  .21

          17 18  02 15.91  +37 29.5   4.583  4.379    14.2 /  12  14.2   37  .13

          18 18  02 16.16  +37 43.4   4.563  4.374    14.2 /  12  14.2   48  .06

          19 18  02 16.41  +37 57.3   4.544  4.369    14.2 /  11  14.2   60  .02

          20 18  02 16.64  +38 11.3   4.525  4.364    14.3 /  10  14.2   73  .00

          21 18  02 16.85  +38 25.3   4.506  4.358    14.3 /  10  14.2   86  .01

          22 18  02 17.06  +38 39.4   4.486  4.353    14.3 /   9  14.1   99  .06

          23 18  02 17.25  +38 53.6   4.467  4.348    14.4 /   8  14.1  112  .13

          24 18  02 17.42  +39 07.8   4.448  4.343    14.4 /   7  14.1  124  .21

          25 18  02 17.58  +39 22.1   4.429  4.338    14.5 /   7  14.1  135  .32

          26 18  02 17.72  +39 36.5   4.409  4.333    14.5 /   6  14.1  145  .43

          27 18  02 17.85  +39 51.0   4.390  4.328    14.6 /   5  14.1  150  .54

          28 18  02 17.96  +40 05.5   4.371  4.323    14.6 /   4  14.1  151  .64

          29 18  02 18.05  +40 20.0   4.352  4.318    14.7 /   3  14.0  147  .74

          30 18  02 18.12  +40 34.6   4.332  4.313    14.7 /   3  14.0  140  .82

          31 18  02 18.18  +40 49.3   4.313  4.308    14.8 /   2  14.0  131  .89

     Aug.  1 18  02 18.22  +41 04.1   4.294  4.303    14.8 /   1  14.0  121  .94

           2 18  02 18.25  +41 18.9   4.275  4.298    14.9 /   0  14.0  111  .98

           3 18  02 18.25  +41 33.8   4.256  4.294    14.9 / 359  14.0  101 1.00

           4 18  02 18.24  +41 48.7   4.237  4.289    15.0 / 359  14.0   91 1.00

           5 18  02 18.20  +42 03.7   4.218  4.284    15.1 / 358  13.9   80  .98

           6 18  02 18.15  +42 18.7   4.199  4.279    15.1 / 357  13.9   71  .94

           7 18  02 18.07  +42 33.8   4.180  4.274    15.2 / 356  13.9   61  .89

           8 18  02 17.97  +42 49.0   4.161  4.269    15.3 / 355  13.9   52  .83

           9 18  02 17.85  +43 04.2   4.142  4.264    15.3 / 354  13.9   43  .75

          10 18  02 17.71  +43 19.4   4.124  4.259    15.4 / 353  13.9   37  .66

          11 18  02 17.55  +43 34.7   4.105  4.254    15.5 / 352  13.9   33  .56

          12 18  02 17.36  +43 50.1   4.086  4.250    15.6 / 352  13.8   32  .46

          13 18  02 17.15  +44 05.5   4.068  4.245    15.6 / 351  13.8   37  .35

          14 18  02 16.92  +44 20.9   4.050  4.240    15.7 / 350  13.8   44  .25

          15 18  02 16.66  +44 36.4   4.031  4.235    15.8 / 349  13.8   54  .16

NAKANO

         **** Don't distribute anyone except personal use only ****

                (C) Copyright 2001 OAA/ComputingSection

write mail from CFAD0::NAKANO on 2001-07-02 05:03:15(JST).



    C/2000 SV74 (LINEAR) 

Epoch 2002 May  6.0 TT = JDT 2452400.5  

T 2002 Apr. 30.48134 TT                                 Nakano

q   3.5410882            (2000.0)            P               Q

z  -0.0014001      Peri.   76.23829     +0.11559131     -0.91087433

 +/-0.0000193      Node    24.18552     -0.07701110     -0.40585606

e   1.0049579      Incl.   75.23536     +0.99030699     +0.07475837

From 157 observations 2000 Sept. 5-2001 Jan. 4, mean residual 0".58.



NAKANO

         **** Don't distribute anyone except personal use only ****

                (C) Copyright 2001 OAA/ComputingSection

write mail from CFAD0::NAKANO on 2001-01-07 02:42:24(JST).

 





    C/2000 SV74 (LINEAR) 

Epoch 2002 May  6.0 TT = JDT 2452400.5  

T 2002 Apr. 30.47808 TT                                 Nakano

q   3.5413802            (2000.0)            P               Q

z  -0.0014321      Peri.   76.23298     +0.11571690     -0.91085601

 +/-0.0000615      Node    24.18519     -0.07706457     -0.40588041

e   1.0050716      Incl.   75.24121     +0.99028817     +0.07484936

From 134 observations 2000 Sept. 5-Dec. 3, mean residual 0".58.



NAKANO

         **** Don't distribute anyone except personal use only ****

                (C) Copyright 2000 OAA/ComputingSection

write mail from CFAD0::NAKANO on 2000-12-10 03:26:06(JST).

 





    C/2000 SV74 (LINEAR) 

T 2002 May 1.25179 TT                                   Nakano

q   3.5428702            (2000.0)            P               Q

                   Peri.   76.25617     +0.11477472     -0.91099021

                   Node    24.19236     -0.07599013     -0.40565415

e   1.0            Incl.   75.16185     +0.99048082     +0.07444156

From 100 observations 2000 Sept. 5-Nov. 6.



NAKANO

         **** Don't distribute anyone except personal use only ****

                (C) Copyright 2000 OAA/ComputingSection

write mail from CFAD0::NAKANO on 2000-11-08 03:10:19(JST).



◎C/2000 SV74の軌道と予報位置です

 彗星として登録されてからの我国での初めての追跡観測が上尾の門田健一氏

によって行なわれました.なお,それ以前に福知山の吉見政義氏の追跡観測が

あります.



    C/2000 SV74 (LINEAR) 

T 2002 May  1.31482 TT                                  Nakano

q   3.5441563            (2000.0)            P               Q

                   Peri.   76.23860     +0.11513924     -0.91093923

                   Node    24.19167     -0.07605404     -0.40571306

e   1.0            Incl.   75.17396     +0.99043361     +0.07474377

From 59 observations 2000 Sept. 5-Oct. 21.

 

Date/        TT  R.A.(2000) Decl.     Delta   r     Daily motion  Mag.  Moon Age

              h    h  m       。  ,                      ,  / PA 。  m1      。

2000 Oct. 21 14  01 28.06  +05 35.3   4.977  5.966    11.8 / 274  16.2  112  .36

          22 14  01 27.27  +05 36.2   4.973  5.960    11.8 / 275  16.2  127  .25

